EST,Max TemperatureF,Mean TemperatureF,Min TemperatureF,Max Dew PointF,MeanDew PointF,Min DewpointF,Max Humidity, Mean Humidity, Min Humidity, Max Sea Level PressureIn, Mean Sea Level PressureIn, Min Sea Level PressureIn, Max VisibilityMiles, Mean VisibilityMiles, Min VisibilityMiles, Max Wind SpeedMPH, Mean Wind SpeedMPH, Max Gust SpeedMPH,PrecipitationIn, CloudCover, Events, WindDirDegrees
2013-1-1,35,32,30,34,32,26,100,95,80,30.16,30.09,30.06,10,7,2,10,3,,0.05,8,Rain,338
2013-1-2,31,26,21,27,23,20,93,84,63,30.31,30.22,30.16,10,10,7,9,4,,0.00,6,,314
2013-1-3,38,27,16,24,20,14,92,76,49,30.41,30.31,30.24,10,10,10,14,3,,0.00,1,,249
2013-1-4,38,30,23,26,23,21,89,76,58,30.44,30.40,30.37,10,10,10,16,4,24,0.00,2,,234
2013-1-5,43,33,23,30,26,21,90,73,53,30.40,30.32,30.21,10,10,10,10,4,,0.00,4,,207
2013-1-6,41,34,24,33,27,19,84,74,66,30.40,30.21,30.12,10,10,10,16,9,25,0.00,7,,252
2013-1-7,41,30,18,24,21,16,93,75,49,30.48,30.38,30.25,10,9,6,7,2,,0.00,0,,99
2013-1-8,53,38,22,34,29,19,89,71,45,30.33,30.27,30.23,10,10,10,17,3,22,0.00,1,,178
2013-1-9,56,49,42,45,40,34,87,75,60,30.49,30.38,30.24,10,10,7,8,4,,0.00,5,Rain,235
2013-1-10,58,50,42,54,43,33,100,88,61,30.48,30.30,30.02,10,6,1,14,8,,0.30,7,Rain,78
2013-1-11,64,58,52,57,55,48,100,87,55,30.01,29.94,29.87,10,7,0,24,14,37,0.83,6,Fog-Rain,202
2013-1-12,66,60,55,64,61,53,100,94,82,30.02,29.94,29.79,10,9,5,17,9,24,0.00,7,Rain,175
2013-1-13,66,49,30,61,49,28,100,94,78,30.21,29.93,29.75,10,6,1,25,12,36,2.37,8,Rain,264
2013-1-14,30,27,24,27,23,20,88,81,73,30.45,30.33,30.23,10,10,7,10,8,,0.00,6,,346
2013-1-15,32,28,23,30,25,20,100,85,69,30.34,30.20,30.06,10,8,4,13,8,20,0.08,7,Rain-Snow,25
2013-1-16,32,31,30,30,29,28,100,93,87,30.14,30.07,30.02,10,7,3,7,4,,0.00,7,,282
2013-1-17,45,37,29,33,27,22,93,75,51,30.43,30.23,30.13,10,10,8,14,4,16,0.00,2,,348
2013-1-18,43,32,22,26,23,18,89,68,46,30.55,30.45,30.32,10,10,10,12,6,,0.00,0,,187
2013-1-19,54,44,35,29,27,25,68,51,34,30.30,30.17,30.02,10,10,10,22,14,31,0.00,0,,198
2013-1-20,45,36,26,33,18,5,75,48,21,30.26,30.18,30.05,10,10,10,14,9,24,0.00,1,,284
2013-1-21,29,23,16,18,10,-1,80,57,31,30.31,30.23,30.17,10,10,10,21,8,28,0.00,3,,269
2013-1-22,22,16,11,3,-1,-4,70,48,31,30.45,30.39,30.32,10,10,10,16,6,21,0.00,4,,282
2013-1-23,38,26,13,19,11,4,80,57,35,30.40,30.28,30.13,10,10,10,13,4,,0.00,3,,227
2013-1-24,31,25,19,19,3,-7,62,42,22,30.57,30.44,30.19,10,10,10,16,13,24,0.00,1,,35
2013-1-25,28,24,21,26,18,2,93,79,42,30.36,30.17,30.05,10,7,2,12,7,,0.03,7,Rain-Snow,137
2013-1-26,37,28,19,26,22,18,94,79,52,30.41,30.32,30.21,10,9,5,6,3,,0.00,1,,248
2013-1-27,44,32,22,40,29,17,93,80,65,30.41,30.30,30.16,10,10,7,17,7,,0.11,6,Rain,117
2013-1-28,56,50,44,52,47,40,94,85,73,30.17,30.12,30.08,10,8,1,21,13,26,0.17,8,Rain,187
2013-1-29,64,59,54,59,55,50,89,84,80,30.08,29.90,29.57,10,10,8,28,14,36,0.00,7,,177
2013-1-30,68,50,32,61,46,24,98,84,70,29.74,29.48,29.35,10,8,0,40,19,60,1.16,8,Rain-Snow,229
2013-1-31,35,26,17,30,20,9,93,72,56,30.17,29.95,29.75,10,8,0,25,16,38,0.01,7,Snow,259